EW8004 Weather Reports


time (UTC)temp
C
wind
direction
speed
KPH
gust
KPH
rain 1hr
cm
rain 24hr
cm
rain mn
cm
humidity
%
barometer
mb
20260506001556 19 175 0.0 0.0 0.00 0.00 0.00 78 1009.9
20260506000057 20 175 0.0 0.0 0.00 0.00 0.00 77 1009.9
20260505234551 20 175 0.0 0.0 0.00 0.00 0.00 75 1009.7
20260505233054 20 175 0.0 0.0 0.00 0.00 0.00 70 1009.5
20260505231550 20 175 0.0 0.0 0.00 0.00 0.00 71 1009.6
20260505230111 20 175 0.0 0.0 0.00 0.00 0.00 67 1009.8
20260505224545 21 175 0.0 0.0 0.00 0.00 0.00 68 1009.9
20260505223046 21 175 0.0 0.0 0.00 0.00 0.00 67 1010.1
20260505221553 21 175 0.0 0.0 0.00 0.00 0.00 69 1010.2
20260505220053 21 175 0.0 0.0 0.00 0.00 0.00 66 1010.3
20260505214542 21 175 0.0 0.0 0.00 0.00 0.00 67 1010.3
20260505213041 21 175 0.0 0.0 0.00 0.00 0.00 65 1010.3
20260505211547 21 175 0.0 0.0 0.00 0.00 0.00 66 1010.6
20260505210040 21 175 0.0 0.0 0.00 0.00 0.00 66 1010.5
20260505204538 21 175 0.0 0.0 0.00 0.00 0.00 66 1010.7
20260505203035 21 103 0.0 0.0 0.00 0.00 0.00 67 1011.1
20260505201533 21 134 0.0 0.0 0.00 0.00 0.00 67 1011.2
20260505200039 21 138 0.0 0.0 0.00 0.00 0.00 69 1011.3
20260505194532 21 125 0.0 0.0 0.00 0.00 0.00 66 1011.3
20260505193031 21 31 0.0 0.0 0.00 0.00 0.00 67 1011.6
20260505191530 22 39 0.0 0.0 0.00 0.00 0.00 67 1011.7
20260505190026 21 39 0.0 0.0 0.00 0.00 0.00 66 1012.0
20260505184527 22 68 0.0 0.0 0.00 0.00 0.00 66 1012.3
20260505183033 22 93 0.0 0.0 0.00 0.00 0.00 65 1012.5
20260505181525 22 120 0.0 0.0 0.00 0.00 0.00 68 1012.7
20260505180024 21 196 0.0 0.0 0.00 0.00 0.00 65 1013.2
20260505174525 21 184 0.0 0.0 0.00 0.00 0.00 63 1013.3
20260505173022 22 119 0.0 0.0 0.00 0.00 0.00 64 1013.4
20260505171522 22 231 0.0 0.0 0.00 0.00 0.00 56 1013.5
20260505170027 22 36 0.0 0.0 0.00 0.00 0.00 68 1013.8
20260505164520 22 35 0.0 0.0 0.00 0.00 0.00 68 1014.2
20260505163020 22 33 0.0 0.0 0.00 0.00 0.00 65 1014.2
20260505161534 21 214 0.0 0.0 0.00 0.00 0.00 67 1014.3
20260505153013 20 213 0.0 0.0 0.00 0.00 0.00 68 1014.2
20260505151507 20 5 0.0 0.0 0.00 0.00 0.00 68 1014.2
20260505124532 11 109 0.0 0.0 0.00 0.00 0.00 97 1014.3
20260505123033 10 109 0.0 0.0 0.00 0.00 0.00 97 1014.2
20260505121534 9 108 0.0 0.0 0.00 0.00 0.00 96 1014.1
20260505120026 8 109 0.0 0.0 0.00 0.00 0.00 96 1014.1
20260505114526 8 108 0.0 0.0 0.00 0.00 0.00 96 1014.1
20260505113025 8 108 0.0 0.0 0.00 0.00 0.00 95 1014.1
20260505111521 8 108 0.0 0.0 0.00 0.00 0.00 94 1013.8
20260505101515 8 109 0.0 0.0 0.00 0.00 0.00 93 1013.4
20260505100017 8 109 0.0 0.0 0.00 0.00 0.00 93 1013.4
20260505094511 8 108 0.0 0.0 0.00 0.00 0.00 93 1013.4
20260505093110 9 108 0.0 0.0 0.00 0.00 0.00 93 1013.6
20260505091509 9 109 0.0 0.0 0.00 0.00 0.00 92 1013.6
20260505090006 10 108 0.0 0.0 0.00 0.00 0.00 92 1013.6
20260505084503 10 108 0.0 0.0 0.00 0.00 0.00 92 1013.3
20260505083107 10 108 0.0 0.0 0.00 0.00 0.00 92 1013.2
20260505081601 10 108 0.0 0.0 0.00 0.00 0.00 92 1013.1
20260505080055 10 108 0.0 0.0 0.00 0.00 0.00 91 1012.8
20260505074553 11 108 0.0 0.0 0.00 0.00 0.00 91 1012.7
20260505073053 11 108 0.0 0.0 0.00 0.00 0.00 91 1012.6
20260505071552 11 108 0.0 0.0 0.00 0.00 0.00 90 1012.7
20260505070051 11 108 0.0 0.0 0.00 0.00 0.00 91 1012.8
20260505064550 11 108 0.0 0.0 0.00 0.00 0.00 92 1012.7
20260505063049 11 108 0.0 0.0 0.00 0.00 0.00 93 1012.6
20260505061550 11 108 0.0 0.0 0.00 0.00 0.00 93 1012.6
20260505060048 11 109 0.0 0.0 0.00 0.00 0.00 93 1012.6
20260505054553 11 109 0.0 0.0 0.00 0.00 0.00 94 1012.6
20260505053043 11 109 0.0 0.0 0.00 0.00 0.00 94 1012.5
20260505051542 11 108 0.0 0.0 0.00 0.00 0.00 93 1012.2
20260505041534 11 108 0.0 0.0 0.00 0.00 0.00 92 1012.2
20260505040031 11 108 0.0 0.0 0.00 0.00 0.00 91 1012.2
20260505034529 11 108 0.0 0.0 0.00 0.00 0.00 91 1012.2
20260505033036 11 108 0.0 0.0 0.00 0.00 0.00 91 1012.3
20260505031534 12 108 0.0 0.0 0.00 0.00 0.00 90 1012.4
20260505030028 12 108 0.0 0.0 0.00 0.00 0.00 88 1012.4
20260505024543 12 108 0.0 0.0 0.00 0.00 0.00 87 1012.5
20260505023036 13 108 0.0 0.0 0.00 0.00 0.00 86 1012.7
20260505021527 13 108 0.0 0.0 0.00 0.00 0.00 84 1012.6
20260505020025 14 108 0.0 0.0 0.00 0.00 0.00 83 1012.4
20260505014534 15 108 0.0 0.0 0.00 0.00 0.00 81 1012.4
20260505013025 15 108 0.0 0.0 0.00 0.00 0.00 79 1012.3
20260505011524 16 108 0.0 0.0 0.00 0.00 0.00 77 1012.1
20260505010023 17 108 0.0 0.0 0.00 0.00 0.00 74 1012.0
20260505004524 18 108 0.0 0.0 0.00 0.00 0.00 71 1011.9
20260505003022 18 108 0.0 0.0 0.00 0.00 0.00 71 1011.8